W4KAB Weather Reports


time (UTC)temp
F
wind
direction
speed
knots
gust
knots
rain 1hr
in
rain 24hr
in
rain mn
in
humidity
%
barometer
mb
20260508145623 60 40 0.0 0.0 0.00 0.00 0.00 50 1020.2
20260508145119 59 268 0.0 0.0 0.00 0.00 0.00 49 1020.0
20260508144617 59 263 0.9 0.9 0.00 0.00 0.00 51 1020.1
20260508144115 59 252 0.0 0.0 0.00 0.00 0.00 52 1020.1
20260508143612 58 253 1.7 1.7 0.00 0.00 0.00 50 1020.1
20260508143109 57 286 0.0 0.0 0.00 0.00 0.00 57 1020.0
20260508142605 57 189 0.9 0.9 0.00 0.00 0.00 58 1019.9
20260508142102 57 270 0.9 0.9 0.00 0.00 0.00 60 1020.0
20260508141559 56 275 0.0 0.0 0.00 0.00 0.00 63 1020.1
20260508141056 56 250 0.0 0.0 0.00 0.00 0.00 74 1020.2
20260508140553 55 256 0.0 0.0 0.00 0.00 0.00 66 1019.9
20260508140050 55 285 0.0 0.0 0.00 0.00 0.00 75 1020.0
20260508135545 54 276 0.0 0.0 0.00 0.00 0.00 67 1020.2
20260508135042 54 271 0.0 0.0 0.00 0.00 0.00 72 1020.1
20260508134538 54 279 0.0 0.0 0.00 0.00 0.00 78 1019.9
20260508134036 53 266 0.0 0.0 0.00 0.00 0.00 79 1020.0
20260508133532 53 271 0.0 0.0 0.00 0.00 0.00 79 1019.7
20260508133030 53 257 0.0 0.0 0.00 0.00 0.00 71 1019.7
20260508132528 53 277 0.0 0.0 0.00 0.00 0.00 73 1019.8
20260508132024 52 279 0.0 0.0 0.00 0.00 0.00 78 1019.9
20260508131519 52 271 0.0 0.0 0.00 0.00 0.00 78 1019.8
20260508131016 52 279 0.0 0.0 0.00 0.00 0.00 78 1019.7
20260508130514 51 267 0.0 0.0 0.00 0.00 0.00 77 1019.8
20260508130009 51 275 0.0 0.0 0.00 0.00 0.00 80 1019.7
20260508125505 51 262 0.0 0.0 0.00 0.00 0.00 83 1019.9
20260508125003 50 272 0.0 0.0 0.00 0.00 0.00 85 1019.8
20260508124501 50 264 0.0 0.0 0.00 0.00 0.00 88 1019.7
20260508123958 49 256 0.0 0.0 0.00 0.00 0.00 89 1019.7
20260508123456 48 255 0.0 0.0 0.00 0.00 0.00 90 1019.8
20260508122952 47 273 0.0 0.0 0.00 0.00 0.00 94 1019.8
20260508122449 47 274 0.0 0.0 0.00 0.00 0.00 95 1019.9
20260508121946 46 279 0.0 0.0 0.00 0.00 0.00 95 1019.6
20260508121444 46 279 0.0 0.0 0.00 0.00 0.00 96 1019.6
20260508120942 45 279 0.0 0.0 0.00 0.00 0.00 96 1019.6
20260508120440 45 256 0.0 0.0 0.00 0.00 0.00 96 1019.5
20260508115937 44 256 0.0 0.0 0.00 0.00 0.00 96 1019.7
20260508115435 44 235 0.0 0.0 0.00 0.00 0.00 97 1019.4
20260508114931 44 252 0.0 0.0 0.00 0.00 0.00 98 1019.2
20260508114428 43 259 0.0 0.0 0.00 0.00 0.00 98 1019.1
20260508113925 43 260 0.0 0.0 0.00 0.00 0.00 98 1018.9
20260508113423 43 261 0.0 0.0 0.00 0.00 0.00 98 1019.1
20260508112920 42 279 0.0 0.0 0.00 0.00 0.00 98 1019.0
20260508112416 42 297 0.0 0.0 0.00 0.00 0.00 98 1018.9
20260508111913 42 299 0.0 0.0 0.00 0.00 0.00 98 1018.9
20260508111410 42 265 0.0 0.0 0.00 0.00 0.00 98 1018.8
20260508110907 42 280 0.0 0.0 0.00 0.00 0.00 98 1018.5
20260508110405 42 264 0.0 0.0 0.00 0.00 0.00 98 1018.5
20260508105904 42 307 0.0 0.0 0.00 0.00 0.00 97 1018.4
20260508105401 42 256 0.0 0.0 0.00 0.00 0.00 98 1018.3
20260508104858 43 254 0.0 0.0 0.00 0.00 0.00 98 1018.3
20260508104355 42 267 0.0 0.0 0.00 0.00 0.00 98 1018.2
20260508103853 42 256 0.0 0.0 0.00 0.00 0.00 98 1018.3
20260508103349 42 260 0.0 0.0 0.00 0.00 0.00 98 1018.1
20260508102847 42 267 0.0 0.0 0.00 0.00 0.00 98 1018.0
20260508102345 42 269 0.0 0.0 0.00 0.00 0.00 98 1017.9
20260508101842 42 259 0.0 0.0 0.00 0.00 0.00 98 1017.8
20260508101339 42 257 0.0 0.0 0.00 0.00 0.00 98 1017.7
20260508100837 42 253 0.0 0.0 0.00 0.00 0.00 98 1017.8
20260508100335 42 263 0.0 0.0 0.00 0.00 0.00 97 1017.8
20260508095830 42 263 0.0 0.0 0.00 0.00 0.00 97 1017.6
20260508095328 42 17 0.0 0.0 0.00 0.00 0.00 97 1017.7
20260508094825 42 42 0.0 0.0 0.00 0.00 0.00 97 1017.7
20260508094322 42 61 0.0 0.0 0.00 0.00 0.00 97 1017.6
20260508093819 43 65 0.0 0.0 0.00 0.00 0.00 96 1017.5
20260508093317 43 308 0.0 0.0 0.00 0.00 0.00 96 1017.3
20260508092814 44 272 0.0 0.0 0.00 0.00 0.00 96 1017.1
20260508092314 44 260 0.0 0.0 0.00 0.00 0.00 96 1017.2
20260508091810 44 280 0.0 0.0 0.00 0.00 0.00 96 1017.4
20260508091306 44 257 0.0 0.0 0.00 0.00 0.00 96 1017.2
20260508090804 44 259 0.0 0.0 0.00 0.00 0.00 96 1016.9
20260508090302 44 290 0.0 0.0 0.00 0.00 0.00 96 1017.2
20260508085757 44 249 0.0 0.0 0.00 0.00 0.00 95 1017.4
20260508085254 45 260 0.0 0.0 0.00 0.00 0.00 95 1017.0
20260508084750 45 245 0.0 0.0 0.00 0.00 0.00 94 1017.0
20260508084248 46 294 0.0 0.0 0.00 0.00 0.00 94 1017.1
20260508083745 46 262 0.0 0.0 0.00 0.00 0.00 93 1016.8
20260508083242 46 284 0.0 0.0 0.00 0.00 0.00 92 1017.1
20260508082737 47 286 0.0 0.0 0.00 0.00 0.00 91 1016.8
20260508082235 48 267 0.0 0.0 0.00 0.00 0.00 89 1016.9
20260508081732 48 261 0.0 0.0 0.00 0.00 0.00 87 1016.7
20260508081229 48 269 0.0 0.0 0.00 0.00 0.00 87 1017.1
20260508080726 48 268 0.0 0.0 0.00 0.00 0.00 87 1016.8
20260508080224 48 258 0.0 0.0 0.00 0.00 0.00 88 1016.7
20260508075720 48 276 0.0 0.0 0.00 0.00 0.00 88 1016.7
20260508075217 48 264 0.0 0.0 0.00 0.00 0.00 88 1016.8
20260508074715 48 262 0.0 0.0 0.00 0.00 0.00 91 1016.4
20260508074212 48 285 0.0 0.0 0.00 0.00 0.00 91 1016.6
20260508073708 48 263 0.0 0.0 0.00 0.00 0.00 90 1016.7
20260508073207 49 262 0.0 0.0 0.00 0.00 0.00 90 1016.6
20260508072702 49 257 0.0 0.0 0.00 0.00 0.00 88 1016.4
20260508072159 49 275 0.0 0.0 0.00 0.00 0.00 87 1016.6
20260508071657 49 258 0.0 0.0 0.00 0.00 0.00 89 1016.6
20260508071155 49 262 0.0 0.0 0.00 0.00 0.00 88 1016.4
20260508070652 49 259 0.0 0.0 0.00 0.00 0.00 89 1016.4
20260508070151 49 266 0.0 0.0 0.00 0.00 0.00 89 1016.3
20260508065647 49 264 0.0 0.0 0.00 0.00 0.00 90 1016.3
20260508065145 48 270 0.0 0.0 0.00 0.00 0.00 91 1016.4
20260508064643 48 272 0.0 0.0 0.00 0.00 0.00 91 1016.3
20260508064141 48 271 0.0 0.0 0.00 0.00 0.00 92 1016.4
20260508063638 48 250 0.0 0.0 0.00 0.00 0.00 92 1016.3
20260508063136 48 263 0.0 0.0 0.00 0.00 0.00 93 1016.6
20260508062633 48 273 0.0 0.0 0.00 0.00 0.00 93 1016.2
20260508062129 48 267 0.0 0.0 0.00 0.00 0.00 93 1016.3
20260508061627 47 273 0.0 0.0 0.00 0.00 0.00 93 1016.6
20260508061125 47 272 0.0 0.0 0.00 0.00 0.00 94 1016.4
20260508060621 47 269 0.0 0.0 0.00 0.00 0.00 94 1016.1
20260508060118 47 280 0.0 0.0 0.00 0.00 0.00 94 1016.6
20260508055614 47 353 0.0 0.0 0.00 0.00 0.00 93 1016.4
20260508055111 48 337 0.0 0.0 0.00 0.00 0.00 92 1016.6
20260508054607 48 310 0.0 0.0 0.00 0.00 0.00 91 1016.4
20260508054105 49 310 0.0 0.0 0.00 0.00 0.00 90 1016.1
20260508053601 50 279 0.0 0.0 0.00 0.00 0.00 89 1016.1
20260508053059 50 260 0.0 0.0 0.00 0.00 0.00 89 1016.3
20260508052557 50 264 0.0 0.0 0.00 0.00 0.00 88 1016.4
20260508052054 50 254 0.0 0.0 0.00 0.00 0.00 88 1016.2
20260508051549 51 265 0.0 0.0 0.00 0.00 0.00 87 1016.0
20260508051045 51 249 0.9 0.9 0.00 0.00 0.00 85 1016.2
20260508050541 51 257 0.0 0.0 0.00 0.00 0.00 84 1015.9
20260508050039 51 227 0.0 0.0 0.00 0.00 0.00 82 1016.0
20260508045535 51 254 0.0 0.0 0.00 0.00 0.00 81 1016.1
20260508045033 51 250 0.0 0.0 0.00 0.00 0.00 81 1015.9
20260508044530 51 258 0.0 0.0 0.00 0.00 0.00 81 1015.9
20260508044026 51 266 0.0 0.0 0.00 0.00 0.00 81 1016.2
20260508043522 51 252 0.0 0.0 0.00 0.00 0.00 82 1015.9
20260508043020 52 274 0.0 0.0 0.00 0.00 0.00 82 1016.1
20260508042516 52 272 0.0 0.0 0.00 0.00 0.00 81 1015.9
20260508042014 52 263 0.0 0.0 0.00 0.00 0.00 81 1015.9
20260508041510 52 266 0.0 0.0 0.00 0.00 0.00 81 1015.8
20260508041007 52 274 0.0 0.0 0.00 0.00 0.00 81 1015.9
20260508040504 52 253 0.0 0.0 0.00 0.00 0.00 82 1015.6
20260508040001 52 265 0.0 0.0 0.00 0.07 0.07 81 1015.6
20260508035458 52 273 0.0 0.0 0.00 0.07 0.07 83 1015.7
20260508034955 52 279 0.0 0.0 0.00 0.07 0.07 85 1015.7
20260508034452 52 255 0.0 0.0 0.00 0.07 0.07 80 1015.6
20260508033949 52 276 0.0 0.0 0.00 0.07 0.07 80 1015.7
20260508033447 53 260 0.0 0.0 0.00 0.07 0.07 80 1015.6
20260508032944 53 260 0.0 0.0 0.00 0.07 0.07 79 1015.5
20260508032436 53 270 0.0 0.0 0.00 0.07 0.07 78 1015.5
20260508031932 53 267 0.0 0.0 0.00 0.07 0.07 77 1015.6
20260508031430 54 271 0.0 0.0 0.00 0.07 0.07 76 1015.5
20260508030925 54 272 0.0 0.0 0.00 0.07 0.07 76 1015.6
20260508030423 54 248 0.0 0.0 0.00 0.07 0.07 76 1015.5
20260508025920 54 285 0.0 0.0 0.00 0.07 0.07 78 1015.3
20260508025416 55 256 0.0 0.0 0.00 0.07 0.07 76 1015.3
20260508024913 55 264 0.0 0.0 0.00 0.07 0.07 75 1015.0
20260508024410 55 240 0.0 0.0 0.00 0.07 0.07 74 1015.2
20260508023907 55 248 0.0 0.9 0.00 0.07 0.07 74 1015.0
20260508023404 55 250 0.9 0.9 0.00 0.07 0.07 73 1015.1
20260508022901 55 242 0.0 0.0 0.00 0.07 0.07 74 1015.2
20260508022356 55 240 0.0 0.9 0.00 0.07 0.07 75 1015.0
20260508021853 55 247 0.0 0.0 0.00 0.07 0.07 74 1015.0
20260508021349 55 228 1.7 1.7 0.00 0.07 0.07 72 1014.8
20260508020845 54 240 0.0 0.0 0.00 0.07 0.07 75 1014.7
20260508020343 54 230 0.0 0.0 0.00 0.07 0.07 75 1014.5
20260508015840 54 245 0.0 0.0 0.00 0.07 0.07 80 1014.7
20260508015338 53 256 0.0 0.0 0.00 0.07 0.07 78 1014.9
20260508014834 53 262 0.0 0.0 0.00 0.07 0.07 80 1014.5
20260508014331 53 264 0.0 0.0 0.00 0.07 0.07 80 1014.6
20260508013826 53 258 0.0 0.9 0.00 0.07 0.07 82 1014.3
20260508013323 53 253 0.0 0.0 0.00 0.07 0.07 82 1014.1
20260508012820 54 320 0.0 0.0 0.00 0.07 0.07 83 1014.2
20260508012317 55 279 0.0 0.0 0.00 0.07 0.07 81 1013.9
20260508011815 55 279 0.0 0.0 0.00 0.07 0.07 75 1014.1
20260508011312 55 277 0.0 0.0 0.00 0.07 0.07 77 1014.0
20260508010809 55 274 0.0 0.0 0.00 0.07 0.07 78 1013.8
20260508010307 56 25 0.0 0.0 0.00 0.07 0.07 79 1013.4
20260508005804 56 276 0.0 0.0 0.00 0.07 0.07 76 1013.8
20260508005301 57 252 0.0 0.0 0.00 0.07 0.07 71 1013.5
20260508004756 57 287 0.0 0.0 0.00 0.07 0.07 71 1013.3
20260508004253 57 256 0.0 0.0 0.00 0.07 0.07 69 1013.5
20260508003749 58 251 0.0 0.0 0.00 0.07 0.07 71 1013.3
20260508003247 58 263 0.0 0.0 0.00 0.07 0.07 67 1013.4
20260508002743 58 257 0.0 0.0 0.00 0.07 0.07 67 1013.5
20260508002241 59 275 0.0 0.0 0.00 0.07 0.07 67 1013.5
20260508001736 59 263 0.0 0.0 0.00 0.07 0.07 66 1013.5
20260508001232 59 247 0.9 1.7 0.00 0.07 0.07 66 1013.6
20260508000729 59 225 2.6 4.3 0.00 0.07 0.07 66 1013.5
20260508000227 59 260 0.0 0.0 0.00 0.07 0.07 68 1013.4
20260507235722 60 63 0.9 0.9 0.00 0.07 0.07 69 1013.6
20260507235220 60 58 0.9 1.7 0.00 0.07 0.07 67 1013.1
20260507234717 60 252 1.7 2.6 0.00 0.07 0.07 66 1013.4
20260507234214 60 11 0.9 0.9 0.00 0.07 0.07 68 1013.1
20260507233710 60 266 2.6 2.6 0.00 0.07 0.07 68 1013.2
20260507233208 60 291 0.0 0.0 0.00 0.07 0.07 70 1013.2
20260507232705 60 36 0.0 0.9 0.00 0.07 0.07 71 1013.0
20260507232202 60 269 0.0 0.0 0.00 0.07 0.07 70 1012.9
20260507231658 60 32 0.9 1.7 0.00 0.07 0.07 72 1013.0
20260507231155 61 333 0.0 0.0 0.00 0.07 0.07 73 1012.9
20260507230652 61 41 0.0 0.9 0.00 0.07 0.07 72 1012.7
20260507230149 62 13 0.0 0.0 0.00 0.07 0.07 70 1012.7
20260507225649 62 230 1.7 1.7 0.00 0.07 0.07 69 1012.5
20260507225146 62 263 2.6 4.3 0.00 0.07 0.07 71 1012.4
20260507224641 61 256 0.0 0.0 0.00 0.07 0.07 71 1012.3
20260507224138 61 240 0.0 0.0 0.00 0.07 0.07 72 1012.5
20260507223634 62 12 0.0 0.0 0.00 0.07 0.07 75 1012.4
20260507223131 62 269 1.7 1.7 0.00 0.07 0.07 73 1012.2
20260507222628 62 56 0.9 0.9 0.00 0.07 0.07 75 1012.3
20260507222124 62 299 0.0 0.0 0.00 0.07 0.07 76 1012.3
20260507221621 62 270 0.0 0.9 0.00 0.07 0.07 77 1012.2
20260507221117 63 325 0.0 0.0 0.00 0.07 0.07 87 1012.2
20260507220614 63 55 0.0 0.9 0.00 0.07 0.07 85 1011.6
20260507220112 63 76 0.9 0.9 0.00 0.07 0.07 85 1011.8
20260507215608 63 340 0.0 0.0 0.00 0.07 0.07 85 1011.6
20260507215106 63 36 0.9 0.9 0.00 0.07 0.07 85 1011.4
20260507214603 64 55 0.0 0.9 0.00 0.07 0.07 84 1011.5
20260507214059 64 62 0.0 0.9 0.00 0.07 0.07 81 1011.6
20260507213555 64 67 1.7 1.7 0.00 0.07 0.07 81 1011.4
20260507213053 65 32 0.0 0.9 0.00 0.07 0.07 81 1011.1
20260507212548 65 337 0.0 0.0 0.00 0.07 0.07 79 1011.1
20260507212046 65 358 0.9 0.9 0.00 0.07 0.07 79 1010.8
20260507211542 65 76 0.9 1.7 0.00 0.07 0.07 80 1010.8
20260507211038 65 6 0.9 0.9 0.00 0.07 0.07 80 1010.8
20260507210536 65 85 1.7 1.7 0.00 0.07 0.07 79 1010.7
20260507210032 65 27 0.0 0.0 0.00 0.07 0.07 81 1010.6
20260507205529 66 42 0.9 0.9 0.00 0.07 0.07 81 1010.5
20260507205025 66 50 0.9 1.7 0.00 0.07 0.07 80 1010.5
20260507204521 66 0 0.0 0.9 0.00 0.07 0.07 80 1010.4
20260507204019 66 79 1.7 2.6 0.00 0.07 0.07 79 1010.4
20260507203517 68 57 1.7 2.6 0.00 0.07 0.07 77 1010.5
20260507203014 68 37 0.9 1.7 0.00 0.07 0.07 75 1010.4
20260507202510 68 14 0.9 1.7 0.00 0.07 0.07 75 1010.3
20260507202006 69 267 0.0 0.0 0.00 0.07 0.07 75 1010.3
20260507201502 68 273 0.0 0.9 0.00 0.07 0.07 76 1010.1
20260507200958 68 54 0.9 1.7 0.00 0.07 0.07 77 1010.0
20260507200454 68 301 0.0 0.9 0.00 0.07 0.07 77 1010.2
20260507195949 68 8 0.9 1.7 0.00 0.07 0.07 77 1010.3
20260507195448 68 294 0.0 0.0 0.00 0.07 0.07 78 1010.3
20260507194945 67 145 0.0 0.9 0.00 0.07 0.07 79 1010.2
20260507194441 67 43 1.7 1.7 0.00 0.07 0.07 79 1010.4
20260507193937 68 299 0.9 1.7 0.00 0.07 0.07 79 1010.5
20260507193434 67 57 1.7 1.7 0.00 0.07 0.07 79 1010.2
20260507192931 65 33 0.0 0.9 0.00 0.07 0.07 82 1010.5
20260507192427 64 286 0.0 0.0 0.00 0.07 0.07 85 1010.4
20260507191924 64 20 0.9 1.7 0.00 0.07 0.07 83 1010.7
20260507191420 64 69 0.9 0.9 0.00 0.07 0.07 84 1010.6
20260507190917 64 328 2.6 2.6 0.00 0.07 0.07 84 1010.5
20260507190415 64 77 0.9 1.7 0.00 0.07 0.07 85 1010.6
20260507185914 64 63 2.6 2.6 0.00 0.07 0.07 85 1010.5
20260507185410 64 82 2.6 2.6 0.00 0.07 0.07 84 1010.8
20260507184907 65 62 1.7 2.6 0.00 0.07 0.07 86 1010.6
20260507184405 66 34 0.0 0.9 0.00 0.07 0.07 84 1010.5
20260507183902 68 45 0.9 0.9 0.00 0.07 0.07 81 1010.2
20260507183359 68 20 0.9 1.7 0.00 0.07 0.07 82 1010.5
20260507182857 67 64 1.7 2.6 0.00 0.07 0.07 81 1010.2
20260507182352 68 11 0.9 0.9 0.00 0.07 0.07 81 1010.7
20260507181849 67 4 0.9 0.9 0.00 0.07 0.07 82 1010.4
20260507181344 66 76 4.3 5.2 0.00 0.07 0.07 86 1010.6
20260507180841 66 335 0.9 0.9 0.00 0.07 0.07 86 1010.5
20260507180338 66 77 1.7 1.7 0.00 0.07 0.07 85 1010.2
20260507175834 66 34 0.9 1.7 0.00 0.07 0.07 87 1010.0
20260507175331 67 19 0.9 0.9 0.00 0.07 0.07 88 1010.0
20260507174828 67 71 1.7 1.7 0.00 0.07 0.07 87 1010.0
20260507174326 68 74 1.7 2.6 0.00 0.07 0.07 88 1009.8
20260507173823 70 49 0.9 0.9 0.00 0.07 0.07 86 1009.7
20260507173320 71 0 0.0 0.9 0.00 0.07 0.07 83 1010.0
20260507172816 71 88 0.9 1.7 0.00 0.07 0.07 82 1009.9
20260507172313 72 106 0.0 0.0 0.00 0.07 0.07 82 1009.9
20260507171809 73 67 0.9 0.9 0.00 0.07 0.07 81 1009.9
20260507171306 74 247 0.0 0.0 0.00 0.07 0.07 76 1010.0
20260507170803 75 157 0.0 0.0 0.00 0.07 0.07 75 1010.1
20260507170300 75 275 0.0 0.0 0.00 0.07 0.07 72 1010.0
20260507165755 76 71 1.7 1.7 0.00 0.07 0.07 70 1010.2
20260507165252 74 222 0.0 0.0 0.00 0.07 0.07 75 1010.4
20260507164748 73 289 0.9 0.9 0.00 0.07 0.07 79 1010.4
20260507164245 74 118 0.9 0.9 0.00 0.07 0.07 72 1010.5
20260507163742 74 99 0.9 0.9 0.00 0.07 0.07 75 1010.4
20260507163240 72 151 0.0 0.0 0.00 0.07 0.07 77 1010.4
20260507162736 72 233 1.7 2.6 0.00 0.07 0.07 82 1010.7
20260507162232 71 228 0.9 0.9 0.00 0.07 0.07 83 1010.6
20260507161729 70 270 0.9 0.9 0.00 0.07 0.07 86 1010.5
20260507161226 69 175 0.0 0.9 0.00 0.07 0.07 88 1010.8
20260507160721 69 265 0.0 0.0 0.00 0.07 0.07 92 1010.7
20260507160218 69 52 0.9 0.9 0.00 0.07 0.07 89 1010.7
20260507155714 70 267 0.0 0.0 0.00 0.07 0.07 92 1010.5
20260507155210 69 248 0.9 0.9 0.00 0.07 0.07 87 1010.5
20260507154706 68 250 0.0 0.0 0.00 0.07 0.07 92 1010.8
20260507154205 67 115 0.9 1.7 0.00 0.07 0.07 94 1010.6
20260507153701 67 286 0.0 0.0 0.00 0.07 0.07 94 1010.8
20260507153157 67 235 0.9 1.7 0.00 0.07 0.07 89 1010.7
20260507152654 67 257 0.0 0.0 0.00 0.07 0.07 94 1011.2
20260507152150 66 254 0.0 0.0 0.00 0.07 0.07 97 1011.1
20260507151646 66 279 0.0 0.0 0.00 0.07 0.07 99 1010.8
20260507151143 66 333 0.0 0.0 0.00 0.07 0.07 99 1011.0
20260507150640 65 252 0.0 0.0 0.00 0.07 0.07 99 1010.8
20260507150136 65 273 0.0 0.0 0.00 0.07 0.07 99 1010.7